Regional Weather Roundup
Issued by NWS

Home | Current Version | Previous Version | Graphics & Text | Print | Product List | Glossary On
Versions: 1 2 3 4 5 6 7 8 9 10 11 12 13 14 15 16 17 18 19 20 21 22 23 24 25 26 27
000
ASUS45 KSLC 231010
RWRUT

UTAH REGIONAL WEATHER ROUNDUP
NATIONAL WEATHER SERVICE SALT LAKE CITY UT
400 AM MDT WED AUG 23 2017

UTZ001>011-023>025-231100-

NORTHERN UTAH

CITY           SKY/WX    TMP DP  RH WIND       PRES   REMARKS
BRIGHAM CITY     N/A     71  51  48 SE5       30.16S
HILL AFB       CLOUDY    71  46  41 E6        30.19R
LOGAN            N/A     63  50  62 W7        30.17S
OGDEN          MOCLDY    73  48  41 SE5       30.16R
SALT LAKE CITY MOCLDY    74  52  46 SE9       30.14S
TOOELE VALLEY    N/A     68  52  56 S15       30.15S
WENDOVER         N/A     66  50  56 W3        30.15S
HEBER CITY       N/A     59  50  72 E7        30.25F
WEST JORDAN    MOCLDY    67  55  66 S10       30.18S

$$

UTZ011>015-024>027-231100-

CENTRAL/NORTHEAST UTAH

CITY           SKY/WX    TMP DP  RH WIND       PRES   REMARKS
PROVO AIRPORT    N/A     62  56  80 S5        30.20R
MOAB/CANYONLAN   N/A     67  46  47 CALM      30.17S
DELTA            N/A     59  45  58 CALM      30.20R
PRICE            N/A     60  54  80 CALM      30.27F
RICHFIELD      CLEAR     52  52 100 CALM      30.29S
ROOSEVELT      CLOUDY    68  45  42 W7        30.23F
VERNAL         CLOUDY    63  47  55 NW5       30.23S

$$

UTZ013>016-019>022-027-231100-

SOUTHERN UTAH

CITY           SKY/WX    TMP DP  RH WIND       PRES   REMARKS
BRYCE CANYON     N/A     46  44  93 W9        30.42S
CEDAR CITY       N/A     61  45  55 NE7       30.25S
MILFORD          N/A     58  46  64 CALM      30.21S
ST GEORGE        N/A     75  46  35 S6        30.06S
HANKSVILLE       N/A     68  43  40 CALM      30.20S
KANAB          CLEAR     59  48  67 NE6       30.25S
BLANDING         N/A     59  43  55 NE7       30.35S

$$

REGIONAL REPORTS     COLORADO/ARIZONA

CITY           SKY/WX    TMP DP  RH WIND       PRES   REMARKS
CRAIG, CO      CLEAR     55  42  61 CALM      30.32S
GRAND JUNCTION CLOUDY    66  52  60 E14       30.21S
RIFLE, CO      CLOUDY    58  46  64 S3        30.28F
MONTROSE, CO   CLEAR     54  46  74 SE5       30.31S
CORTEZ, CO     CLEAR     52  48  86 CALM      30.30S
COLORADO CITY    N/A     57  50  77 S6        30.23S
PAGE, AZ         N/A     75  45  34 SW5       30.14S
GRAND CANYON     N/A     50  46  86 CALM      30.33S
KINGMAN, AZ      N/A     67  47  48 S6        30.09R
FLAGSTAFF, AZ    N/A     49  44  83 CALM      30.36S

$$

REGIONAL REPORTS    NEVADA/IDAHO/WYOMING

CITY           SKY/WX    TMP DP  RH WIND       PRES   REMARKS
LAS VEGAS, NV  MOCLDY    86  47  25 CALM      29.96S
ELY, NY          N/A     52  48  86 S15       30.30S
ELKO, NV         N/A     58  48  69 CALM      30.22S
POCATELLO, ID  PTCLDY    65  49  56 W7        30.15R
BURLEY, ID       N/A     71  48  43 S9        30.09S
FORT BRIDGER,  CLOUDY    64  40  41 W12       30.36S
EVANSTON, WY   CLOUDY    59  44  57 CALM      30.34F
ROCK SPRINGS,  CLOUDY    61  37  41 S9        30.30S
KEMMERER, WY     N/A     55  36  47 CALM      30.36S

$$




USA.gov is the U.S. government's official web portal to all federal, state and local government web resources and services.